Location: Mountain View
(42.7042°N, 73.6523°W)
Time: 13:57:15
(UTC+00:00)

ACS3 Solar Sail - Visible Passes

Search period start: 07 October 2024 00:00
Search period end: 17 October 2024 00:00
Orbit: 962 x 1035 km, 97.4° (Epoch: 07 October)

Date Brightness Start Highest point End Pass type
(mag) Time Alt. Az. Time Alt. Az. Time Alt. Az.
07 Oct 2.3 00:04:45 30° ESE 00:07:06 40° ENE 00:12:58 10° N visible
07 Oct 3.1 01:49:55 33° WSW 01:51:02 35° W 01:56:48 10° NNW visible
07 Oct 3.6 22:53:25 10° ENE 22:55:51 12° NE 22:58:16 10° NNE visible
08 Oct 1.8 00:36:57 49° SE 00:38:38 70° ENE 00:44:57 10° N visible
08 Oct 3.9 02:22:06 19° W 02:23:04 20° W 02:27:33 10° NW visible
08 Oct 3.1 23:23:58 15° E 23:27:00 22° ENE 23:31:35 10° NNE visible
09 Oct 2.0 01:09:07 57° SSW 01:10:19 69° W 01:16:39 10° NNW visible
09 Oct 2.4 23:56:08 29° ESE 23:58:18 36° ENE 00:04:00 10° N visible
10 Oct 2.9 01:41:17 38° WSW 01:42:07 39° W 01:48:02 10° NNW visible
10 Oct 3.6 22:45:35 10° ENE 22:47:04 11° NE 22:48:35 10° NE visible
11 Oct 1.8 00:28:17 49° SE 00:29:45 63° ENE 00:36:00 10° N visible
11 Oct 3.8 02:13:26 22° W 02:14:05 22° W 02:18:53 10° NW visible
11 Oct 3.2 23:15:16 14° E 23:18:09 19° ENE 23:22:24 10° NNE visible
12 Oct 1.9 01:00:25 65° SSW 01:01:21 77° WSW 01:07:42 10° NNW visible
12 Oct 4.4 02:45:34 11° W 02:46:13 11° W 02:48:09 10° WNW visible
12 Oct 2.5 23:47:23 27° E 23:49:23 33° ENE 23:54:52 10° N visible
13 Oct 2.7 01:32:32 43° WSW 01:33:06 44° W 01:39:07 10° NNW visible
14 Oct 1.9 00:19:30 48° ESE 00:20:46 56° ENE 00:26:54 10° N visible
14 Oct 3.6 02:04:39 25° W 02:04:59 25° W 02:10:03 10° NW visible
14 Oct 3.3 23:06:27 13° E 23:09:11 17° ENE 23:13:03 10° NNE visible
15 Oct 1.8 00:51:36 73° S 00:52:17 86° WSW 00:58:37 10° NNW visible
15 Oct 4.3 02:36:45 13° W 02:37:02 13° W 02:39:51 10° WNW visible
15 Oct 2.7 23:38:31 25° E 23:40:20 29° ENE 23:45:36 10° N visible
16 Oct 2.5 01:23:40 49° WSW 01:23:57 49° W 01:30:03 10° NNW visible
